DAL2581 KLGA-KDCA

Flight info

Callsign DAL2581
Flight time N/A
Altitude 30000
Route BIGGY Q75 MXE CLIPR3
Aircraft A320/M-SDE3FGHIRWY/LB1

Departure

Time 2026-05-06 01:30
Airport LaGuardia Airport (KLGA)

Arrival

Time N/A
Airport Ronald Reagan Washington National Airport (KDCA)
Time Latitude Longitude Altitude Speed Heading
2026-05-06 01:17 40.77392 -73.86818 20 ft 0 kts 242°
2026-05-06 01:21 40.77399 -73.86802 23 ft 4 kts 242°
2026-05-06 01:22 40.77412 -73.86771 21 ft 4 kts 246°
2026-05-06 01:22 40.77416 -73.86738 23 ft 4 kts 284°
2026-05-06 01:22 40.77407 -73.86710 19 ft 1 kts 302°
2026-05-06 01:24 40.77410 -73.86717 19 ft 2 kts 302°
2026-05-06 01:24 40.77412 -73.86722 19 ft 0 kts 302°
2026-05-06 01:25 40.77445 -73.86733 18 ft 13 kts 18°
2026-05-06 01:25 40.77465 -73.86606 12 ft 8 kts 63°
2026-05-06 01:25 40.77491 -73.86608 12 ft 5 kts 293°
2026-05-06 01:25 40.77533 -73.86750 12 ft 25 kts 291°
2026-05-06 01:26 40.77618 -73.86938 13 ft 18 kts 303°
2026-05-06 01:26 40.77699 -73.87000 13 ft 12 kts 342°
2026-05-06 01:26 40.77748 -73.87078 14 ft 11 kts 301°
2026-05-06 01:26 40.77791 -73.87175 14 ft 14 kts 301°
2026-05-06 01:27 40.77841 -73.87284 14 ft 14 kts 301°
2026-05-06 01:27 40.77902 -73.87409 15 ft 17 kts 306°
2026-05-06 01:27 40.77964 -73.87528 16 ft 15 kts 303°
2026-05-06 01:27 40.78021 -73.87643 15 ft 15 kts 303°
2026-05-06 01:28 40.78071 -73.87755 17 ft 13 kts 300°
2026-05-06 01:28 40.78116 -73.87842 18 ft 10 kts 330°
2026-05-06 01:28 40.78181 -73.87861 16 ft 9 kts
2026-05-06 01:28 40.78206 -73.87819 16 ft 5 kts 109°
2026-05-06 01:29 40.78178 -73.87746 14 ft 19 kts 120°
2026-05-06 01:29 40.78010 -73.87395 14 ft 81 kts 121°
2026-05-06 01:29 40.77599 -73.86533 16 ft 138 kts 123°
2026-05-06 01:29 40.77062 -73.85447 567 ft 137 kts 131°
2026-05-06 01:30 40.76534 -73.84383 1134 ft 140 kts 138°
2026-05-06 01:30 40.75984 -73.83296 1701 ft 145 kts 142°
2026-05-06 01:30 40.75408 -73.82186 2133 ft 157 kts 143°
2026-05-06 01:30 40.74696 -73.80979 2422 ft 175 kts 144°
2026-05-06 01:31 40.73870 -73.79704 2699 ft 191 kts 144°
2026-05-06 01:31 40.72928 -73.78322 2904 ft 214 kts 144°
2026-05-06 01:31 40.71852 -73.76803 3112 ft 241 kts 144°
2026-05-06 01:31 40.70487 -73.75445 3488 ft 246 kts 169°
2026-05-06 01:32 40.68845 -73.75196 4182 ft 240 kts 195°
2026-05-06 01:32 40.67308 -73.75983 4965 ft 238 kts 220°
2026-05-06 01:32 40.66224 -73.77610 5806 ft 239 kts 244°
2026-05-06 01:32 40.65715 -73.79712 6636 ft 243 kts 255°
2026-05-06 01:33 40.65294 -73.81894 7464 ft 248 kts 255°
2026-05-06 01:33 40.64867 -73.84099 8258 ft 253 kts 255°
2026-05-06 01:33 40.64423 -73.86372 9057 ft 259 kts 255°
2026-05-06 01:33 40.63964 -73.88700 9860 ft 264 kts 255°
2026-05-06 01:34 40.63655 -73.90264 10323 ft 269 kts 255°
2026-05-06 01:34 40.63161 -73.92755 10624 ft 292 kts 255°
2026-05-06 01:34 40.62629 -73.95441 10969 ft 311 kts 255°
2026-05-06 01:34 40.62079 -73.98227 11631 ft 318 kts 254°
2026-05-06 01:35 40.61517 -74.01068 12403 ft 322 kts 254°
2026-05-06 01:35 40.60947 -74.03933 13183 ft 326 kts 254°
2026-05-06 01:35 40.60375 -74.06804 13882 ft 329 kts 253°
2026-05-06 01:35 40.59790 -74.09740 14588 ft 332 kts 253°
2026-05-06 01:36 40.59199 -74.12691 15327 ft 334 kts 253°
2026-05-06 01:36 40.58604 -74.15662 16060 ft 337 kts 253°
2026-05-06 01:36 40.58004 -74.18668 16774 ft 339 kts 253°
2026-05-06 01:36 40.57412 -74.21640 17498 ft 342 kts 253°
2026-05-06 01:37 40.56803 -74.24679 18199 ft 344 kts 253°
2026-05-06 01:37 40.56189 -74.27736 18802 ft 347 kts 253°
2026-05-06 01:37 40.55570 -74.30811 19397 ft 349 kts 253°
2026-05-06 01:37 40.54943 -74.33915 19990 ft 351 kts 253°
2026-05-06 01:38 40.54313 -74.37034 20579 ft 354 kts 253°
2026-05-06 01:38 40.53685 -74.40146 21162 ft 356 kts 253°
2026-05-06 01:38 40.53045 -74.43306 21727 ft 359 kts 253°
2026-05-06 01:38 40.52398 -74.46493 21943 ft 360 kts 253°
2026-05-06 01:39 40.51765 -74.49599 21995 ft 351 kts 253°
2026-05-06 01:39 40.51134 -74.52691 21979 ft 348 kts 253°
2026-05-06 01:39 40.50504 -74.55778 21992 ft 348 kts 253°
2026-05-06 01:39 40.49877 -74.58857 21992 ft 348 kts 253°
2026-05-06 01:40 40.49261 -74.61888 21993 ft 348 kts 253°
2026-05-06 01:40 40.48633 -74.64964 21991 ft 348 kts 253°
2026-05-06 01:40 40.48003 -74.68041 21991 ft 348 kts 253°
2026-05-06 01:40 40.47370 -74.71115 21990 ft 348 kts 252°
2026-05-06 01:41 40.46746 -74.74143 21990 ft 347 kts 252°
2026-05-06 01:41 40.46113 -74.77212 21988 ft 347 kts 253°
2026-05-06 01:41 40.45480 -74.80286 22011 ft 347 kts 252°
2026-05-06 01:41 40.44847 -74.83349 22010 ft 347 kts 252°
2026-05-06 01:42 40.44219 -74.86376 22010 ft 347 kts 252°
2026-05-06 01:42 40.43584 -74.89441 22007 ft 347 kts 252°
2026-05-06 01:42 40.42949 -74.92500 22006 ft 347 kts 252°
2026-05-06 01:42 40.42237 -74.95486 22005 ft 345 kts 246°
2026-05-06 01:43 40.41096 -74.98249 22005 ft 344 kts 235°
2026-05-06 01:43 40.39555 -75.00659 22007 ft 344 kts 227°
2026-05-06 01:43 40.37913 -75.02959 22009 ft 344 kts 227°
2026-05-06 01:43 40.36276 -75.05255 21987 ft 344 kts 228°
2026-05-06 01:44 40.34663 -75.07522 21998 ft 344 kts 228°
2026-05-06 01:44 40.33019 -75.09831 22000 ft 344 kts 227°
2026-05-06 01:44 40.31374 -75.12140 22002 ft 344 kts 227°
2026-05-06 01:44 40.29759 -75.14404 22005 ft 344 kts 227°
2026-05-06 01:45 40.28121 -75.16695 22004 ft 344 kts 227°
2026-05-06 01:45 40.26481 -75.18988 22005 ft 344 kts 227°
2026-05-06 01:45 40.24843 -75.21280 22005 ft 344 kts 227°
2026-05-06 01:45 40.23203 -75.23573 22024 ft 344 kts 227°